Tracking 28790 objects as of 19-Apr-2024
HD Live streaming from Space Station
objects crossing your sky now

COSMOS 2251 DEB

Track COSMOS 2251 DEB now!
10-day predictions


NORAD ID: 33811
Int'l Code: 1993-036BC
Perigee: 604.7 km
Apogee: 684.7 km
Inclination: 73.8 °
Period: 97.5 minutes
Semi major axis: 7015 km
RCS: 0.1866 m2 (medium)
Launch date: June 16, 1993
Source: Commonwealth of Independent States (former USSR) (CIS)
Launch site: PLESETSK MISSILE AND SPACE COMPLEX (PKMTR)

Note: This is SATELLITE DEBRIS
Your satellite tracking list
Your tracking list is empty




NASA's NSSDC Master Catalog

Two Line Element Set (TLE):
1 33811U 93036BC  24109.41696361  .00022497  00000-0  30732-2 0  9990
2 33811  73.8483  86.4844 0057011 295.7772 184.7767 14.77390147810257
Source of the keplerian elements: AFSPC